Location: Goheenville
(40.9070°N, 79.3720°W)
Time: 20:40:06
(UTC-04:00)

Daily predictions for brighter satellites

Satellite Brightness Start Highest point End
(mag) Time Altitude Azimuth Time Altitude Azimuth Time Altitude Azimuth
ATLAS 5 CENTAUR R/B 3.9 21:06:48 10° NNW 21:11:23 23° NE 21:16:15 10° E
Tsikada Rocket 4.0 21:07:40 10° S 21:13:53 81° E 21:20:05 10° N
YAOGAN 6 3.1 21:13:49 10° SE 21:17:20 43° ENE 21:20:52 10° N
Tiangong 2 1.1 21:19:03 10° WNW 21:22:16 80° SSW 21:25:25 10° ESE
USA 186 3.1 21:20:38 10° SSW 21:23:03 33° W 21:25:39 10° NNW
Meteor 2-10 Rocket 4.3 21:18:30 10° NNW 21:24:18 66° W 21:30:00 10° S
Cosmos 2034 Rocket 4.5 21:18:22 10° NNW 21:24:30 64° W 21:30:33 10° S
Aureole 3 4.2 21:22:45 10° SE 21:25:02 19° E 21:27:15 10° NE
Meteor 2-3 Rocket 3.7 21:21:35 10° S 21:27:16 70° E 21:32:55 10° NNE
COSMOS 2487 4.3 21:24:39 10° NW 21:27:48 30° WSW 21:30:56 10° SSW
GPS 2-04 Rocket1 3.3 21:24:24 10° WSW 21:27:49 34° S 21:30:49 12° ESE
Meteor 1-26 Rocket 4.3 21:22:49 10° N 21:28:29 86° ENE 21:34:14 10° S
Cosmos 2084 4.1 21:25:38 10° NNW 21:29:12 36° NE 21:32:31 12° ESE
ARGOS 4.2 21:24:56 10° ESE 21:29:27 29° ENE 21:33:59 10° N
Cosmos 1782 4.1 21:28:04 10° NNE 21:31:26 25° ENE 21:34:14 13° SE
Helios 1B rocket 2.4 21:27:47 10° NNE 21:31:53 64° ESE 21:35:56 10° S
Cosmos 1634 Rocket 4.1 21:27:27 10° N 21:33:42 60° E 21:39:55 10° SSE
Cosmos 2082 Rocket 4.0 21:30:21 10° NW 21:35:07 29° WSW 21:39:53 10° SSW
H-2A R/B 3.6 21:32:37 11° ESE 21:36:34 22° ENE 21:40:37 10° NNE
Cosmos 1937 Rocket 4.1 21:34:40 10° SSW 21:39:44 62° WNW 21:44:51 10° NNE
CZ-4B DEB 2.5 21:37:46 11° SSE 21:40:29 69° ENE 21:43:24 10° N
Lacrosse 4 Rocket 3.4 21:37:59 10° N 21:41:15 19° NE 21:44:24 10° E
Cosmos 2344 4.2 21:34:50 10° S 21:41:23 31° ESE 21:48:16 10° NE
Cosmos 1408 3.5 21:42:05 14° SSE 21:44:45 30° E 21:48:04 10° NNE
Meteor 1-29 2.9 21:43:23 10° NNE 21:46:54 78° ESE 21:50:22 10° S
Cosmos 1825 3.0 21:45:47 15° SSE 21:48:22 32° E 21:51:45 10° NNE
TIMED 4.4 21:47:06 10° S 21:51:26 70° ESE 21:55:48 10° NNE
Shenzhou-11 Module 2.7 21:50:40 10° W 21:53:35 40° SSW 21:55:05 23° SSE
Resurs 01 Rocket 4.2 21:51:06 10° SW 21:54:15 19° W 21:57:25 10° NW
Helios 1A 3.9 21:56:44 10° S 22:00:46 47° W 22:04:51 10° NNW
Molniya-1 2.6 21:59:43 10° SW 22:03:05 10° NE 22:01:08 48° SW
Cosmos 1892 4.3 21:59:21 10° SW 22:02:55 36° WNW 22:06:30 10° N
MetOp-A 4.1 22:01:46 16° SSE 22:06:07 75° ENE 22:11:29 10° N
COSMOS 2455 3.0 22:00:31 10° SSW 22:06:31 79° WNW 22:12:34 10° NNE
ERS-1 Rocket 3.0 22:03:27 14° SSE 22:07:46 89° WSW 22:12:50 10° NNW
Cosmos 2279 Rocket 4.0 22:02:32 10° N 22:08:47 67° E 22:13:33 18° SSE
Cosmos 1943 Rocket 2.2 22:06:20 10° S 22:11:49 60° ESE 22:17:17 10° NNE
Cosmos 1048 Rocket 4.2 22:07:33 10° NNW 22:12:49 58° ENE 22:15:52 24° SE
Cosmos 2263 4.2 22:09:20 10° SSW 22:15:06 80° ESE 22:20:52 10° NNE
NOAA 11 4.3 22:13:36 14° S 22:18:19 74° WSW 22:23:49 10° NNW
deb Kosmos-1763 4.3 22:15:20 10° N 22:19:03 55° ENE 22:20:24 34° SE
USA 215 3.2 22:19:36 23° SE 22:24:03 88° SW 22:30:40 10° NW
Milstar 3 3.9 22:15:00 10° SW 22:24:21 31° S 22:27:31 24° SE
Cosmos 1340 2.6 22:20:52 10° N 22:24:39 65° E 22:25:59 37° SSE
Okean 1-7 3.5 22:21:45 10° NNW 22:26:06 59° W 22:29:17 18° S
Lacrosse 5 rocket 1.7 22:25:42 10° WSW 22:29:13 55° NW 22:32:50 10° NE
Cosmos 2369 Rocket 2.9 22:24:07 10° SW 22:29:39 56° WNW 22:35:16 10° NNE
Cosmos 1833 4.4 22:27:52 10° NNW 22:33:37 60° ENE 22:36:20 31° SE
SPOT 1/Viking Rocket 3.6 22:31:52 30° SSE 22:34:26 69° ENE 22:39:38 10° N
Cosmos 1606 3.2 22:31:48 10° NNW 22:35:31 56° W 22:37:21 27° SSW
Landsat 7 4.2 22:34:09 32° ESE 22:35:51 47° ENE 22:40:25 10° N
SL-08 RB Rocket 3.7 22:35:00 30° S 22:37:20 86° WSW 22:42:03 10° NNW
DNEPR-1 R/B 3.9 22:32:54 10° SW 22:38:12 77° WNW 22:42:43 10° NNE
Intercosmos 25 Rocket 4.5 22:32:36 10° N 22:40:07 58° ENE 22:42:06 35° SE
GEOS 3 Rocket 4.2 22:38:07 27° ESE 22:40:37 47° NE 22:45:38 10° NNW
ISS -2.1 22:41:23 10° W 22:44:23 34° NNW 22:47:24 10° NE
Cosmos 1269 Rocket 4.0 22:41:05 10° NNW 22:46:23 78° WSW 22:48:45 34° S
Meteor 1-27 Rocket 3.7 22:40:38 10° N 22:46:26 88° E 22:49:13 32° S
Cosmos 372 Rocket 4.2 22:41:56 10° SSW 22:47:03 69° WNW 22:52:09 10° NNE
Cosmos 1733 Rocket 2.9 22:45:53 42° S 22:47:16 74° E 22:51:35 10° NNE
Terra 2.3 22:49:48 38° ESE 22:51:00 46° ENE 22:55:33 10° N
Cosmos 1125 Rocket 4.3 22:47:54 10° SW 22:53:01 51° WNW 22:58:06 10° N
CENTAUR R/B 2.8 22:47:14 10° SW 22:53:12 67° NW 23:00:05 10° NNE
Nimbus 7 Rocket 4.3 22:49:45 10° NNE 22:55:40 89° E 22:59:42 21° SSW
ATLAS 5 CENTAUR R/B 2.4 22:50:42 10° NW 22:56:45 85° WSW 22:59:28 38° SSE
Cosmos 1437 4.0 22:55:07 10° N 22:57:24 32° NE 22:57:24 32° NE
Tiangong 2 3.4 22:56:31 10° W 22:57:47 16° WSW 22:57:47 16° WSW
SPOT 5 3.7 22:58:43 25° SSW 23:01:38 51° W 23:06:49 10° NNW
Cosmos 2026 Rocket 4.5 23:04:33 36° ESE 23:05:49 40° E 23:11:34 10° NNE
Meteor 2-20 4.4 23:03:29 36° S 23:06:05 74° E 23:12:12 10° NNE
GPS 2-04 Rocket1 4.5 23:03:59 10° WSW 23:05:16 18° WSW 23:05:16 18° WSW
ARGOS 4.3 23:06:21 20° SSW 23:09:31 37° W 23:14:29 10° NNW
Cosmos 1975 Rocket 4.3 23:07:00 10° NNE 23:10:46 28° ENE 23:10:46 28° ENE
Cosmos 1867 3.9 23:06:07 10° NNW 23:11:29 54° NE 23:12:56 41° ESE
Cosmos 1656 Rocket 3.5 23:10:03 34° SSW 23:12:31 84° ESE 23:18:04 10° NNE
H-2A R/B 2.8 23:13:15 30° SSW 23:15:37 50° W 23:20:49 10° NNW
CARTOSAT-1 3.4 23:19:18 75° S 23:19:40 86° W 23:24:01 10° NNW
Lacrosse 4 Rocket 2.0 23:15:55 10° NW 23:20:16 50° WSW 23:20:44 47° SW
Spot 4 4.2 23:22:13 47° E 23:22:39 48° ENE 23:27:17 10° N
CZ-4 R/B 4.0 23:19:39 10° NNE 23:23:54 51° E 23:23:54 51° E
Cosmos 1674 Rocket 3.8 23:20:08 10° NNW 23:24:24 60° W 23:24:54 56° SW
Cosmos 1378 Rocket 3.5 23:21:34 10° N 23:26:01 75° E 23:26:03 75° E
Meteor 1-14 Rocket 4.3 23:26:51 54° SSE 23:28:02 68° E 23:33:50 10° NNE
Cosmos 494 Rocket 3.8 23:23:03 10° NNW 23:28:18 90° ENE 23:29:03 66° SSE
SL-19 R/B 4.4 23:23:00 10° NNE 23:29:03 76° ESE 23:30:53 48° S
Cosmos 1092 Rocket 4.0 23:27:21 37° SSW 23:29:55 77° W 23:36:05 10° N
ATLAS CENTAUR R/B 3.1 23:33:00 22° NE 23:33:00 22° NE 23:34:30 10° NE
H-2A R/B 2.0 23:37:08 75° NNW 23:37:08 75° NNW 23:40:55 10° NNW
Cosmos 1627 Rocket 4.4 23:35:55 53° S 23:37:32 81° E 23:43:53 10° N
Cosmos 2227 Rocket 3.6 23:33:17 10° N 23:38:03 27° NE 23:39:30 24° E
Cosmos 2219 3.1 23:37:00 10° NNW 23:42:46 80° ENE 23:43:36 65° SE
CZ-2C R/B 4.0 23:38:29 10° NE 23:41:46 24° ENE 23:41:46 24° ENE
Cosmos 1553 Rocket 4.3 23:39:10 10° N 23:45:23 52° ENE 23:46:20 48° ESE
CZ-4B R/B 3.4 23:41:23 10° NNE 23:46:05 66° E 23:46:05 66° E
Cosmos 1812 3.4 23:43:08 10° N 23:46:07 51° N 23:46:07 51° N
CZ-4C R/B 4.0 23:53:17 56° NNE 23:53:17 56° NNE 23:56:49 10° N
Okean 3 4.4 23:51:51 10° NNW 23:55:33 41° W 23:55:33 41° W
